FENGYUN 1C DEB, 31177

Orbit data source: Space-Track

FENGYUN 1C DEB, 31177 is space debris in SSO originally from a launch on Mon, 10 May 1999 UTC launched from the Taiyaun Space Center, China (TSC). Fengyun 1C debris stems from the Chinese weather satellite Fengyun-1C, which was intentionally destroyed by a Chinese anti-satellite missile in 2007. This event dramatically increased the amount of space debris, with thousands of trackable fragments posing hazards to satellites and human spaceflight. The Fengyun 1C debris cloud has become a focal point in discussions about space sustainability and the need for international regulations to prevent the creation of new debris.

Loading next visibility...
Identifier
31177, 1999-025BJF
Orbit
SSO
Country
Flag of CNCN / PRC
Related business
Manufacturer
Unknown
Mission
Spacecraft
Bus & Motor
Unknown
Mass
Unknown
Launch date (UTC)
1999-05-10 (27 years ago)
Launch vehicle
Unknown
Launch site
Taiyaun Space Center, China (TSC)
Object type
Payload
Rocket body
Debris
Shape & HBR
Unknown shape, 0.1 m
Radar Cross Section
Medium (>0.1 m² and <1 m²)

Expand to show TLE details & history
Last TLE update: 5 hours ago

TLE from 5 hours ago
0 FENGYUN 1C DEB
1 31177U 99025BJF 26238.64245039  .00003394  00000-0  31355-2 0  9996
2 31177  98.7572 131.8103 0307018   0.8863  27.1827 13.63946609697129
Epoch: 2026-08-26T15:25Z
TLE epoch observation values (Epoch: 2026-08-26T15:25:07.713Z)
Latitude
29.402°
Longitude
-79.31764°
Altitude
824.372 km
Speed
7.544 km/s
True Right ascension
08h 27m 25s
True Declination
29° 15' 23"
Sunlit
Object was in daylight at epoch
Visualization orbit readout
Latitude
Unknown
Longitude
Unknown
Altitude
Unknown
Speed
Unknown
Apparent Right ascension
Unknown
Apparent Declination
Unknown
Sunlit
N/A
Visualization observer readout
Local Sidereal Time
12:05:27
Azimuth
Unknown
Elevation
Unknown
Doppler factor
Unknown
Orbital elements
Apogee altitude
1,245.71 km
Perigee altitude
791.523 km
Semi-major axis
7,396.753 km
Eccentricity
0.0307
Inclination
98.7572°
RAAN
131.8103°
Arg. of periapsis
0.8863°
True anomaly
28.84639°
Mean anomaly
27.1827°
Eccentric anomaly
28.00878°
Mean motion
3.41178 °/min
Orbital period
105.52 mins
BSTAR
0.0031355
Loading maneuver chart data...
Computing Atmospheric mass density...

Documentation

Showing up to 5 results
|